Tracking 35274 objects as of 12-Sep-2026
HD Live streaming from Space Station
objects crossing your sky now

STARLINK-2100


STARLINK-2100 is no longer on orbit
STARLINK-2100 is classified as:


NORAD ID: 47380
Int'l Code: 2021-005AH
Launch date: January 20, 2021
Source: United States (US)
Launch site: AIR FORCE EASTERN TEST RANGE (AFETR)
Decay date: 2026-08-09
Your satellite tracking list
Your tracking list is empty




NASA's NSSDC Master Catalog

Two Line Element Set (TLE):
1 47380U 21005AH  26220.83525038  .07575250  12474-4  45330-3 0  9997
2 47380  53.0300   0.1212 0011173 297.5122  62.4789 16.41181916307354
Source of the keplerian elements: AFSPC